Year,Month,Day,Hour,Minute,Value (Times are PST for temperature in C)
2016,09,22,00,00,8.20
2016,09,22,00,01,8.20
2016,09,22,00,02,8.20
2016,09,22,00,03,8.20
2016,09,22,00,04,8.20
2016,09,22,00,05,8.20
2016,09,22,00,06,8.20
2016,09,22,00,07,8.20
2016,09,22,00,08,8.20
2016,09,22,00,09,8.20
2016,09,22,00,10,8.20
2016,09,22,00,11,8.20
2016,09,22,00,12,8.20
2016,09,22,00,13,8.20
2016,09,22,00,14,8.20
2016,09,22,00,15,8.20
2016,09,22,00,16,8.20
2016,09,22,00,17,8.20
2016,09,22,00,18,8.30
2016,09,22,00,19,8.30
2016,09,22,00,20,8.30
2016,09,22,00,21,8.30
2016,09,22,00,22,8.40
2016,09,22,00,23,8.30
2016,09,22,00,24,8.30
2016,09,22,00,25,8.30
2016,09,22,00,26,8.30
2016,09,22,00,27,8.30
2016,09,22,00,28,8.20
2016,09,22,00,29,8.20
2016,09,22,00,30,8.10
2016,09,22,00,31,8.10
2016,09,22,00,32,8.00
2016,09,22,00,33,8.00
2016,09,22,00,34,7.90
2016,09,22,00,35,7.90
2016,09,22,00,36,7.90
2016,09,22,00,37,7.80
2016,09,22,00,38,7.80
2016,09,22,00,39,7.80
2016,09,22,00,40,7.80
2016,09,22,00,41,7.80
2016,09,22,00,42,7.80
2016,09,22,00,43,7.70
2016,09,22,00,44,7.70
2016,09,22,00,45,7.70
2016,09,22,00,46,7.70
2016,09,22,00,47,7.70
2016,09,22,00,48,7.70
2016,09,22,00,49,7.70
2016,09,22,00,50,7.70
2016,09,22,00,51,7.70
2016,09,22,00,52,7.70
2016,09,22,00,53,7.70
2016,09,22,00,54,7.70
2016,09,22,00,55,7.70
2016,09,22,00,56,7.70
2016,09,22,00,57,7.70
2016,09,22,00,58,7.70
2016,09,22,00,59,7.70
2016,09,22,01,00,7.70
2016,09,22,01,01,7.80
2016,09,22,01,02,7.70
2016,09,22,01,03,7.70
2016,09,22,01,04,7.60
2016,09,22,01,05,7.60
2016,09,22,01,06,7.60
2016,09,22,01,07,7.60
2016,09,22,01,08,7.50
2016,09,22,01,09,7.50
2016,09,22,01,10,7.40
2016,09,22,01,11,7.30
2016,09,22,01,12,7.30
2016,09,22,01,13,7.20
2016,09,22,01,14,7.20
2016,09,22,01,15,7.10
2016,09,22,01,16,7.10
2016,09,22,01,17,7.10
2016,09,22,01,18,7.10
2016,09,22,01,19,7.10
2016,09,22,01,20,7.10
2016,09,22,01,21,7.10
2016,09,22,01,22,7.10
2016,09,22,01,23,7.10
2016,09,22,01,24,7.00
2016,09,22,01,25,7.00
2016,09,22,01,26,7.00
2016,09,22,01,27,7.00
2016,09,22,01,28,7.00
2016,09,22,01,29,7.00
2016,09,22,01,30,7.00
2016,09,22,01,31,7.00
2016,09,22,01,32,7.00
2016,09,22,01,33,7.00
2016,09,22,01,34,7.00
2016,09,22,01,35,7.10
2016,09,22,01,36,7.10
2016,09,22,01,37,7.10
2016,09,22,01,38,7.10
2016,09,22,01,39,7.10
2016,09,22,01,40,7.10
2016,09,22,01,41,7.10
2016,09,22,01,42,7.10
2016,09,22,01,43,7.10
2016,09,22,01,44,7.10
2016,09,22,01,45,7.20
2016,09,22,01,46,7.20
2016,09,22,01,47,7.20
2016,09,22,01,48,7.20
2016,09,22,01,49,7.20
2016,09,22,01,50,7.20
2016,09,22,01,51,7.20
2016,09,22,01,52,7.20
2016,09,22,01,53,7.20
2016,09,22,01,54,7.20
2016,09,22,01,55,7.20
2016,09,22,01,56,7.20
2016,09,22,01,57,7.20
2016,09,22,01,58,7.20
2016,09,22,01,59,7.10
2016,09,22,02,00,7.10
2016,09,22,02,01,7.10
2016,09,22,02,02,7.10
2016,09,22,02,03,7.10
2016,09,22,02,04,7.10
2016,09,22,02,05,7.00
2016,09,22,02,06,7.00
2016,09,22,02,07,6.90
2016,09,22,02,08,6.90
2016,09,22,02,09,6.90
2016,09,22,02,10,6.90
2016,09,22,02,11,6.90
2016,09,22,02,12,6.90
2016,09,22,02,13,6.80
2016,09,22,02,14,6.80
2016,09,22,02,15,6.80
2016,09,22,02,16,6.80
2016,09,22,02,17,6.80
2016,09,22,02,18,6.80
2016,09,22,02,19,6.80
2016,09,22,02,20,6.80
2016,09,22,02,21,6.80
2016,09,22,02,22,6.80
2016,09,22,02,23,6.80
2016,09,22,02,24,6.80
2016,09,22,02,25,6.70
2016,09,22,02,26,6.70
2016,09,22,02,27,6.70
2016,09,22,02,28,6.70
2016,09,22,02,29,6.70
2016,09,22,02,30,6.70
2016,09,22,02,31,6.70
2016,09,22,02,32,6.60
2016,09,22,02,33,6.70
2016,09,22,02,34,6.70
2016,09,22,02,35,6.70
2016,09,22,02,36,6.70
2016,09,22,02,37,6.70
2016,09,22,02,38,6.60
2016,09,22,02,39,6.70
2016,09,22,02,40,6.60
2016,09,22,02,41,6.60
2016,09,22,02,42,6.60
2016,09,22,02,43,6.60
2016,09,22,02,44,6.60
2016,09,22,02,45,6.60
2016,09,22,02,46,6.60
2016,09,22,02,47,6.60
2016,09,22,02,48,6.60
2016,09,22,02,49,6.60
2016,09,22,02,50,6.60
2016,09,22,02,51,6.60
2016,09,22,02,52,6.60
2016,09,22,02,53,6.60
2016,09,22,02,54,6.60
2016,09,22,02,55,6.60
2016,09,22,02,56,6.60
2016,09,22,02,57,6.50
2016,09,22,02,58,6.50
2016,09,22,02,59,6.50
2016,09,22,03,00,6.50
2016,09,22,03,01,6.50
2016,09,22,03,02,6.50
2016,09,22,03,03,6.40
2016,09,22,03,04,6.40
2016,09,22,03,05,6.30
2016,09,22,03,06,6.20
2016,09,22,03,07,6.20
2016,09,22,03,08,6.10
2016,09,22,03,09,6.10
2016,09,22,03,10,6.10
2016,09,22,03,11,6.10
2016,09,22,03,12,6.10
2016,09,22,03,13,6.10
2016,09,22,03,14,6.10
2016,09,22,03,15,6.10
2016,09,22,03,16,6.10
2016,09,22,03,17,6.20
2016,09,22,03,18,6.20
2016,09,22,03,19,6.20
2016,09,22,03,20,6.20
2016,09,22,03,21,6.20
2016,09,22,03,22,6.20
2016,09,22,03,23,6.20
2016,09,22,03,24,6.20
2016,09,22,03,25,6.20
2016,09,22,03,26,6.20
2016,09,22,03,27,6.20
2016,09,22,03,28,6.20
2016,09,22,03,29,6.10
2016,09,22,03,30,6.10
2016,09,22,03,31,6.20
2016,09,22,03,32,6.20
2016,09,22,03,33,6.20
2016,09,22,03,34,6.20
2016,09,22,03,35,6.20
2016,09,22,03,36,6.10
2016,09,22,03,37,6.10
2016,09,22,03,38,6.10
2016,09,22,03,39,6.20
2016,09,22,03,40,6.20
2016,09,22,03,41,6.20
2016,09,22,03,42,6.20
2016,09,22,03,43,6.30
2016,09,22,03,44,6.30
2016,09,22,03,45,6.30
2016,09,22,03,46,6.30
2016,09,22,03,47,6.30
2016,09,22,03,48,6.30
2016,09,22,03,49,6.30
2016,09,22,03,50,6.30
2016,09,22,03,51,6.20
2016,09,22,03,52,6.20
2016,09,22,03,53,6.10
2016,09,22,03,54,6.10
2016,09,22,03,55,6.00
2016,09,22,03,56,6.00
2016,09,22,03,57,6.00
2016,09,22,03,58,6.00
2016,09,22,03,59,6.00
2016,09,22,04,00,6.00
2016,09,22,04,01,6.00
2016,09,22,04,02,6.00
2016,09,22,04,03,6.00
2016,09,22,04,04,6.00
2016,09,22,04,05,6.00
2016,09,22,04,06,6.10
2016,09,22,04,07,6.10
2016,09,22,04,08,6.10
2016,09,22,04,09,6.10
2016,09,22,04,10,6.10
2016,09,22,04,11,6.20
2016,09,22,04,12,6.20
2016,09,22,04,13,6.20
2016,09,22,04,14,6.20
2016,09,22,04,15,6.20
2016,09,22,04,16,6.10
2016,09,22,04,17,6.10
2016,09,22,04,18,6.10
2016,09,22,04,19,6.10
2016,09,22,04,20,6.10
2016,09,22,04,21,6.10
2016,09,22,04,22,6.10
2016,09,22,04,23,6.10
2016,09,22,04,24,6.10
2016,09,22,04,25,6.00
2016,09,22,04,26,6.10
2016,09,22,04,27,6.10
2016,09,22,04,28,6.10
2016,09,22,04,29,6.00
2016,09,22,04,30,6.00
2016,09,22,04,31,5.90
2016,09,22,04,32,5.80
2016,09,22,04,33,5.80
2016,09,22,04,34,5.80
2016,09,22,04,35,5.80
2016,09,22,04,36,5.70
2016,09,22,04,37,5.70
2016,09,22,04,38,5.70
2016,09,22,04,39,5.60
2016,09,22,04,40,5.60
2016,09,22,04,41,5.60
2016,09,22,04,42,5.60
2016,09,22,04,43,5.60
2016,09,22,04,44,5.60
2016,09,22,04,45,5.60
2016,09,22,04,46,5.60
2016,09,22,04,47,5.70
2016,09,22,04,48,5.70
2016,09,22,04,49,5.70
2016,09,22,04,50,5.80
2016,09,22,04,51,5.80
2016,09,22,04,52,5.80
2016,09,22,04,53,5.80
2016,09,22,04,54,5.80
2016,09,22,04,55,5.70
2016,09,22,04,56,5.70
2016,09,22,04,57,5.70
2016,09,22,04,58,5.70
2016,09,22,04,59,5.70
2016,09,22,05,00,5.70
2016,09,22,05,01,5.60
2016,09,22,05,02,5.60
2016,09,22,05,03,5.60
2016,09,22,05,04,5.60
2016,09,22,05,05,5.50
2016,09,22,05,06,5.50
2016,09,22,05,07,5.40
2016,09,22,05,08,5.40
2016,09,22,05,09,5.30
2016,09,22,05,10,5.30
2016,09,22,05,11,5.30
2016,09,22,05,12,5.30
2016,09,22,05,13,5.30
2016,09,22,05,14,5.30
2016,09,22,05,15,5.30
2016,09,22,05,16,5.30
2016,09,22,05,17,5.30
2016,09,22,05,18,5.30
2016,09,22,05,19,5.30
2016,09,22,05,20,5.30
2016,09,22,05,21,5.30
2016,09,22,05,22,5.30
2016,09,22,05,23,5.30
2016,09,22,05,24,5.30
2016,09,22,05,25,5.40
2016,09,22,05,26,5.40
2016,09,22,05,27,5.40
2016,09,22,05,28,5.40
2016,09,22,05,29,5.40
2016,09,22,05,30,5.40
2016,09,22,05,31,5.30
2016,09,22,05,32,5.30
2016,09,22,05,33,5.30
2016,09,22,05,34,5.20
2016,09,22,05,35,5.20
2016,09,22,05,36,5.20
2016,09,22,05,37,5.20
2016,09,22,05,38,5.10
2016,09,22,05,39,5.10
2016,09,22,05,40,5.10
2016,09,22,05,41,5.10
2016,09,22,05,42,5.10
2016,09,22,05,43,5.10
2016,09,22,05,44,5.10
2016,09,22,05,45,5.10
2016,09,22,05,46,5.20
2016,09,22,05,47,5.20
2016,09,22,05,48,5.30
2016,09,22,05,49,5.30
2016,09,22,05,50,5.30
2016,09,22,05,51,5.30
2016,09,22,05,52,5.30
2016,09,22,05,53,5.30
2016,09,22,05,54,5.30
2016,09,22,05,55,5.30
2016,09,22,05,56,5.30
2016,09,22,05,57,5.30
2016,09,22,05,58,5.30
2016,09,22,05,59,5.30
2016,09,22,06,00,5.30
2016,09,22,06,01,5.30
2016,09,22,06,02,5.20
2016,09,22,06,03,5.20
2016,09,22,06,04,5.20
2016,09,22,06,05,5.20
2016,09,22,06,06,5.20
2016,09,22,06,07,5.10
2016,09,22,06,08,5.10
2016,09,22,06,09,5.10
2016,09,22,06,10,5.10
2016,09,22,06,11,5.10
2016,09,22,06,12,5.10
2016,09,22,06,13,5.10
2016,09,22,06,14,5.10
2016,09,22,06,15,5.10
2016,09,22,06,16,5.00
2016,09,22,06,17,5.00
2016,09,22,06,18,5.00
2016,09,22,06,19,5.00
2016,09,22,06,20,5.00
2016,09,22,06,21,5.00
2016,09,22,06,22,5.10
2016,09,22,06,23,5.10
2016,09,22,06,24,5.10
2016,09,22,06,25,5.20
2016,09,22,06,26,5.20
2016,09,22,06,27,5.20
2016,09,22,06,28,5.20
2016,09,22,06,29,5.20
2016,09,22,06,30,5.20
2016,09,22,06,31,5.20
2016,09,22,06,32,5.10
2016,09,22,06,33,5.10
2016,09,22,06,34,5.10
2016,09,22,06,35,5.00
2016,09,22,06,36,4.90
2016,09,22,06,37,4.90
2016,09,22,06,38,4.90
2016,09,22,06,39,4.80
2016,09,22,06,40,4.80
2016,09,22,06,41,4.80
2016,09,22,06,42,4.80
2016,09,22,06,43,4.80
2016,09,22,06,44,4.80
2016,09,22,06,45,4.80
2016,09,22,06,46,4.70
2016,09,22,06,47,4.70
2016,09,22,06,48,4.70
2016,09,22,06,49,4.70
2016,09,22,06,50,4.70
2016,09,22,06,51,4.70
2016,09,22,06,52,4.70
2016,09,22,06,53,4.70
2016,09,22,06,54,4.70
2016,09,22,06,55,4.70
2016,09,22,06,56,4.60
2016,09,22,06,57,4.60
2016,09,22,06,58,4.60
2016,09,22,06,59,4.60
2016,09,22,07,00,4.60
2016,09,22,07,01,4.60
2016,09,22,07,02,4.60
2016,09,22,07,03,4.60
2016,09,22,07,04,4.60
2016,09,22,07,05,4.60
2016,09,22,07,06,4.70
2016,09,22,07,07,4.70
2016,09,22,07,08,4.70
2016,09,22,07,09,4.70
2016,09,22,07,10,4.70
2016,09,22,07,11,4.70
2016,09,22,07,12,4.70
2016,09,22,07,13,4.70
2016,09,22,07,14,4.70
2016,09,22,07,15,4.70
2016,09,22,07,16,4.70
2016,09,22,07,17,4.70
2016,09,22,07,18,4.70
2016,09,22,07,19,4.70
2016,09,22,07,20,4.70
2016,09,22,07,21,4.70
2016,09,22,07,22,4.70
2016,09,22,07,23,4.70
2016,09,22,07,24,4.70
2016,09,22,07,25,4.70
2016,09,22,07,26,4.70
2016,09,22,07,27,4.70
2016,09,22,07,28,4.80
2016,09,22,07,29,4.80
2016,09,22,07,30,4.80
2016,09,22,07,31,4.80
2016,09,22,07,32,4.80
2016,09,22,07,33,4.80
2016,09,22,07,34,4.80
2016,09,22,07,35,4.80
2016,09,22,07,36,4.80
2016,09,22,07,37,4.80
2016,09,22,07,38,4.80
2016,09,22,07,39,4.80
2016,09,22,07,40,4.80
2016,09,22,07,41,4.80
2016,09,22,07,42,4.90
2016,09,22,07,43,4.90
2016,09,22,07,44,5.00
2016,09,22,07,45,5.00
2016,09,22,07,46,5.00
2016,09,22,07,47,5.10
2016,09,22,07,48,5.10
2016,09,22,07,49,5.20
2016,09,22,07,50,5.30
2016,09,22,07,51,5.30
2016,09,22,07,52,5.30
2016,09,22,07,53,5.40
2016,09,22,07,54,5.50
2016,09,22,07,55,5.50
2016,09,22,07,56,5.60
2016,09,22,07,57,5.70
2016,09,22,07,58,5.80
2016,09,22,07,59,5.90
2016,09,22,08,00,6.00
2016,09,22,08,01,6.00
2016,09,22,08,02,6.10
2016,09,22,08,03,6.20
2016,09,22,08,04,6.30
2016,09,22,08,05,6.40
2016,09,22,08,06,6.40
2016,09,22,08,07,6.50
2016,09,22,08,08,6.50
2016,09,22,08,09,6.50
2016,09,22,08,10,6.50
2016,09,22,08,11,6.50
2016,09,22,08,12,6.50
2016,09,22,08,13,6.60
2016,09,22,08,14,6.60
2016,09,22,08,15,6.60
2016,09,22,08,16,6.60
2016,09,22,08,17,6.70
2016,09,22,08,18,6.80
2016,09,22,08,19,6.80
2016,09,22,08,20,6.90
2016,09,22,08,21,7.00
2016,09,22,08,22,7.00
2016,09,22,08,23,7.00
2016,09,22,08,24,7.00
2016,09,22,08,25,7.10
2016,09,22,08,26,7.10
2016,09,22,08,27,7.10
2016,09,22,08,28,7.20
2016,09,22,08,29,7.30
2016,09,22,08,30,7.40
2016,09,22,08,31,7.50
2016,09,22,08,32,7.70
2016,09,22,08,33,7.80
2016,09,22,08,34,7.90
2016,09,22,08,35,8.00
2016,09,22,08,36,8.10
2016,09,22,08,37,8.20
2016,09,22,08,38,8.30
2016,09,22,08,39,8.30
2016,09,22,08,40,8.40
2016,09,22,08,41,8.40
2016,09,22,08,42,8.50
2016,09,22,08,43,8.50
2016,09,22,08,44,8.60
2016,09,22,08,45,8.60
2016,09,22,08,46,8.70
2016,09,22,08,47,8.80
2016,09,22,08,48,8.80
2016,09,22,08,49,8.90
2016,09,22,08,50,9.00
2016,09,22,08,51,9.20
2016,09,22,08,52,9.30
2016,09,22,08,53,9.40
2016,09,22,08,54,9.50
2016,09,22,08,55,9.50
2016,09,22,08,56,9.60
2016,09,22,08,57,9.60
2016,09,22,08,58,9.70
2016,09,22,08,59,9.80
2016,09,22,09,00,9.80
2016,09,22,09,01,9.90
2016,09,22,09,02,10.00
2016,09,22,09,03,10.10
2016,09,22,09,04,10.20
2016,09,22,09,05,10.30
2016,09,22,09,06,10.40
2016,09,22,09,07,10.50
2016,09,22,09,08,10.60
2016,09,22,09,09,10.70
2016,09,22,09,10,10.90
2016,09,22,09,11,11.00
2016,09,22,09,12,11.10
2016,09,22,09,13,11.20
2016,09,22,09,14,11.30
2016,09,22,09,15,11.40
2016,09,22,09,16,11.50
2016,09,22,09,17,11.60
2016,09,22,09,18,11.80
2016,09,22,09,19,11.90
2016,09,22,09,20,12.00
2016,09,22,09,21,12.10
2016,09,22,09,22,12.30
2016,09,22,09,23,12.40
2016,09,22,09,24,12.50
2016,09,22,09,25,12.60
2016,09,22,09,26,12.80
2016,09,22,09,27,12.90
2016,09,22,09,28,13.10
2016,09,22,09,29,13.20
2016,09,22,09,30,13.30
2016,09,22,09,31,13.40
2016,09,22,09,32,13.50
2016,09,22,09,33,13.50
2016,09,22,09,34,13.50
2016,09,22,09,35,13.60
2016,09,22,09,36,13.60
2016,09,22,09,37,13.70
2016,09,22,09,38,13.80
2016,09,22,09,39,13.90
2016,09,22,09,40,14.00
2016,09,22,09,41,14.10
2016,09,22,09,42,14.20
2016,09,22,09,43,14.20
2016,09,22,09,44,14.30
2016,09,22,09,45,14.50
2016,09,22,09,46,14.60
2016,09,22,09,47,14.70
2016,09,22,09,48,14.70
2016,09,22,09,49,14.80
2016,09,22,09,50,14.90
2016,09,22,09,51,15.00
2016,09,22,09,52,15.10
2016,09,22,09,53,15.10
2016,09,22,09,54,15.20
2016,09,22,09,55,15.20
2016,09,22,09,56,15.30
2016,09,22,09,57,15.40
2016,09,22,09,58,15.40
2016,09,22,09,59,15.50
2016,09,22,10,00,15.60
2016,09,22,10,01,15.60
2016,09,22,10,02,15.70
2016,09,22,10,03,15.70
2016,09,22,10,04,15.70
2016,09,22,10,05,15.80
2016,09,22,10,06,15.80
2016,09,22,10,07,15.80
2016,09,22,10,08,15.90
2016,09,22,10,09,15.90
2016,09,22,10,10,16.00
2016,09,22,10,11,16.10
2016,09,22,10,12,16.10
2016,09,22,10,13,16.20
2016,09,22,10,14,16.20
2016,09,22,10,15,16.30
2016,09,22,10,16,16.30
2016,09,22,10,17,16.40
2016,09,22,10,18,16.40
2016,09,22,10,19,16.40
2016,09,22,10,20,16.40
2016,09,22,10,21,16.50
2016,09,22,10,22,16.50
2016,09,22,10,23,16.60
2016,09,22,10,24,16.60
2016,09,22,10,25,16.70
2016,09,22,10,26,16.70
2016,09,22,10,27,16.70
2016,09,22,10,28,16.70
2016,09,22,10,29,16.70
2016,09,22,10,30,16.80
2016,09,22,10,31,16.80
2016,09,22,10,32,16.90
2016,09,22,10,33,16.90
2016,09,22,10,34,17.00
2016,09,22,10,35,17.10
2016,09,22,10,36,17.10
2016,09,22,10,37,17.10
2016,09,22,10,38,17.10
2016,09,22,10,39,17.00
2016,09,22,10,40,17.00
2016,09,22,10,41,17.00
2016,09,22,10,42,17.00
2016,09,22,10,43,17.00
2016,09,22,10,44,17.00
2016,09,22,10,45,17.10
2016,09,22,10,46,17.10
2016,09,22,10,47,17.10
2016,09,22,10,48,17.10
2016,09,22,10,49,17.10
2016,09,22,10,50,17.00
2016,09,22,10,51,16.90
2016,09,22,10,52,16.80
2016,09,22,10,53,16.80
2016,09,22,10,54,16.80
2016,09,22,10,55,16.80
2016,09,22,10,56,16.90
2016,09,22,10,57,16.90
2016,09,22,10,58,17.00
2016,09,22,10,59,17.00
2016,09,22,11,00,17.10
2016,09,22,11,01,17.20
2016,09,22,11,02,17.20
2016,09,22,11,03,17.20
2016,09,22,11,04,17.30
2016,09,22,11,05,17.20
2016,09,22,11,06,17.20
2016,09,22,11,07,17.20
2016,09,22,11,08,17.20
2016,09,22,11,09,17.20
2016,09,22,11,10,17.30
2016,09,22,11,11,17.30
2016,09,22,11,12,17.40
2016,09,22,11,13,17.40
2016,09,22,11,14,17.40
2016,09,22,11,15,17.30
2016,09,22,11,16,17.30
2016,09,22,11,17,17.30
2016,09,22,11,18,17.30
2016,09,22,11,19,17.30
2016,09,22,11,20,17.30
2016,09,22,11,21,17.40
2016,09,22,11,22,17.50
2016,09,22,11,23,17.50
2016,09,22,11,24,17.50
2016,09,22,11,25,17.50
2016,09,22,11,26,17.50
2016,09,22,11,27,17.50
2016,09,22,11,28,17.40
2016,09,22,11,29,17.40
2016,09,22,11,30,17.40
2016,09,22,11,31,17.50
2016,09,22,11,32,17.50
2016,09,22,11,33,17.50
2016,09,22,11,34,17.50
2016,09,22,11,35,17.60
2016,09,22,11,36,17.70
2016,09,22,11,37,17.80
2016,09,22,11,38,17.90
2016,09,22,11,39,17.90
2016,09,22,11,40,18.00
2016,09,22,11,41,18.00
2016,09,22,11,42,18.10
2016,09,22,11,43,18.20
2016,09,22,11,44,18.20
2016,09,22,11,45,18.20
2016,09,22,11,46,18.10
2016,09,22,11,47,18.10
2016,09,22,11,48,18.00
2016,09,22,11,49,18.00
2016,09,22,11,50,17.90
2016,09,22,11,51,18.00
2016,09,22,11,52,18.10
2016,09,22,11,53,18.10
2016,09,22,11,54,18.20
2016,09,22,11,55,18.20
2016,09,22,11,56,18.20
2016,09,22,11,57,18.10
2016,09,22,11,58,18.00
2016,09,22,11,59,17.90
2016,09,22,12,00,17.80
2016,09,22,12,01,17.80
2016,09,22,12,02,17.80
2016,09,22,12,03,17.70
2016,09,22,12,04,17.70
2016,09,22,12,05,17.70
2016,09,22,12,06,17.70
2016,09,22,12,07,17.70
2016,09,22,12,08,17.70
2016,09,22,12,09,17.70
2016,09,22,12,10,17.60
2016,09,22,12,11,17.60
2016,09,22,12,12,17.70
2016,09,22,12,13,17.60
2016,09,22,12,14,17.60
2016,09,22,12,15,17.60
2016,09,22,12,16,17.60
2016,09,22,12,17,17.50
2016,09,22,12,18,17.60
2016,09,22,12,19,17.60
2016,09,22,12,20,17.70
2016,09,22,12,21,17.70
2016,09,22,12,22,17.70
2016,09,22,12,23,17.80
2016,09,22,12,24,17.90
2016,09,22,12,25,17.90
2016,09,22,12,26,17.90
2016,09,22,12,27,17.90
2016,09,22,12,28,17.90
2016,09,22,12,29,17.90
2016,09,22,12,30,17.90
2016,09,22,12,31,17.90
2016,09,22,12,32,17.90
2016,09,22,12,33,17.90
2016,09,22,12,34,17.80
2016,09,22,12,35,17.80
2016,09,22,12,36,17.90
2016,09,22,12,37,17.90
2016,09,22,12,38,17.90
2016,09,22,12,39,17.90
2016,09,22,12,40,17.90
2016,09,22,12,41,17.90
2016,09,22,12,42,17.90
2016,09,22,12,43,17.90
2016,09,22,12,44,17.90
2016,09,22,12,45,17.90
2016,09,22,12,46,18.00
2016,09,22,12,47,18.10
2016,09,22,12,48,18.10
2016,09,22,12,49,18.20
2016,09,22,12,50,18.20
2016,09,22,12,51,18.10
2016,09,22,12,52,18.10
2016,09,22,12,53,18.10
2016,09,22,12,54,18.10
2016,09,22,12,55,18.20
2016,09,22,12,56,18.20
2016,09,22,12,57,18.10
2016,09,22,12,58,18.10
2016,09,22,12,59,18.20
2016,09,22,13,00,18.20
2016,09,22,13,01,18.20
2016,09,22,13,02,18.10
2016,09,22,13,03,18.10
2016,09,22,13,04,18.10
2016,09,22,13,05,18.10
2016,09,22,13,06,18.20
2016,09,22,13,07,18.10
2016,09,22,13,08,18.10
2016,09,22,13,09,18.10
2016,09,22,13,10,18.10
2016,09,22,13,11,18.00
2016,09,22,13,12,18.00
2016,09,22,13,13,18.00
2016,09,22,13,14,18.00
2016,09,22,13,15,18.00
2016,09,22,13,16,18.00
2016,09,22,13,17,17.90
2016,09,22,13,18,17.90
2016,09,22,13,19,17.90
2016,09,22,13,20,18.00
2016,09,22,13,21,18.00
2016,09,22,13,22,17.90
2016,09,22,13,23,17.90
2016,09,22,13,24,17.90
2016,09,22,13,25,17.90
2016,09,22,13,26,17.90
2016,09,22,13,27,18.00
2016,09,22,13,28,18.00
2016,09,22,13,29,18.00
2016,09,22,13,30,18.00
2016,09,22,13,31,18.00
2016,09,22,13,32,18.00
2016,09,22,13,33,17.90
2016,09,22,13,34,17.90
2016,09,22,13,35,17.90
2016,09,22,13,36,17.90
2016,09,22,13,37,17.90
2016,09,22,13,38,17.90
2016,09,22,13,39,17.80
2016,09,22,13,40,17.80
2016,09,22,13,41,17.70
2016,09,22,13,42,17.60
2016,09,22,13,43,17.60
2016,09,22,13,44,17.60
2016,09,22,13,45,17.60
2016,09,22,13,46,17.70
2016,09,22,13,47,17.70
2016,09,22,13,48,17.70
2016,09,22,13,49,17.70
2016,09,22,13,50,17.70
2016,09,22,13,51,17.70
2016,09,22,13,52,17.70
2016,09,22,13,53,17.70
2016,09,22,13,54,17.70
2016,09,22,13,55,17.80
2016,09,22,13,56,17.80
2016,09,22,13,57,17.80
2016,09,22,13,58,17.80
2016,09,22,13,59,17.80
2016,09,22,14,00,17.80
2016,09,22,14,01,17.90
2016,09,22,14,02,17.90
2016,09,22,14,03,17.90
2016,09,22,14,04,17.80
2016,09,22,14,05,17.80
2016,09,22,14,06,17.80
2016,09,22,14,07,17.80
2016,09,22,14,08,17.80
2016,09,22,14,09,17.90
2016,09,22,14,10,17.90
2016,09,22,14,11,17.80
2016,09,22,14,12,17.70
2016,09,22,14,13,17.70
2016,09,22,14,14,17.70
2016,09,22,14,15,17.70
2016,09,22,14,16,17.60
2016,09,22,14,17,17.70
2016,09,22,14,18,17.80
2016,09,22,14,19,17.80
2016,09,22,14,20,17.80
2016,09,22,14,21,17.90
2016,09,22,14,22,17.90
2016,09,22,14,23,17.90
2016,09,22,14,24,17.90
2016,09,22,14,25,17.90
2016,09,22,14,26,18.00
2016,09,22,14,27,18.00
2016,09,22,14,28,18.10
2016,09,22,14,29,18.20
2016,09,22,14,30,18.20
2016,09,22,14,31,18.10
2016,09,22,14,32,18.10
2016,09,22,14,33,18.10
2016,09,22,14,34,18.10
2016,09,22,14,35,18.10
2016,09,22,14,36,18.10
2016,09,22,14,37,18.00
2016,09,22,14,38,18.00
2016,09,22,14,39,18.00
2016,09,22,14,40,18.10
2016,09,22,14,41,18.20
2016,09,22,14,42,18.30
2016,09,22,14,43,18.30
2016,09,22,14,44,18.40
2016,09,22,14,45,18.50
2016,09,22,14,46,18.60
2016,09,22,14,47,18.60
2016,09,22,14,48,18.60
2016,09,22,14,49,18.70
2016,09,22,14,50,18.70
2016,09,22,14,51,18.60
2016,09,22,14,52,18.50
2016,09,22,14,53,18.40
2016,09,22,14,54,18.40
2016,09,22,14,55,18.40
2016,09,22,14,56,18.40
2016,09,22,14,57,18.50
2016,09,22,14,58,18.50
2016,09,22,14,59,18.60
2016,09,22,15,00,18.70
2016,09,22,15,01,18.70
2016,09,22,15,02,18.70
2016,09,22,15,03,18.70
2016,09,22,15,04,18.80
2016,09,22,15,05,18.80
2016,09,22,15,06,18.80
2016,09,22,15,07,18.80
2016,09,22,15,08,18.70
2016,09,22,15,09,18.70
2016,09,22,15,10,18.70
2016,09,22,15,11,18.60
2016,09,22,15,12,18.60
2016,09,22,15,13,18.50
2016,09,22,15,14,18.50
2016,09,22,15,15,18.40
2016,09,22,15,16,18.40
2016,09,22,15,17,18.40
2016,09,22,15,18,18.40
2016,09,22,15,19,18.50
2016,09,22,15,20,18.40
2016,09,22,15,21,18.40
2016,09,22,15,22,18.40
2016,09,22,15,23,18.30
2016,09,22,15,24,18.20
2016,09,22,15,25,18.10
2016,09,22,15,26,18.00
2016,09,22,15,27,18.00
2016,09,22,15,28,17.90
2016,09,22,15,29,17.80
2016,09,22,15,30,17.80
2016,09,22,15,31,17.80
2016,09,22,15,32,17.80
2016,09,22,15,33,17.90
2016,09,22,15,34,17.90
2016,09,22,15,35,17.90
2016,09,22,15,36,17.90
2016,09,22,15,37,17.90
2016,09,22,15,38,17.90
2016,09,22,15,39,17.90
2016,09,22,15,40,17.90
2016,09,22,15,41,17.90
2016,09,22,15,42,17.90
2016,09,22,15,43,17.80
2016,09,22,15,44,17.80
2016,09,22,15,45,17.70
2016,09,22,15,46,17.60
2016,09,22,15,47,17.50
2016,09,22,15,48,17.30
2016,09,22,15,49,17.20
2016,09,22,15,50,17.20
2016,09,22,15,51,17.10
2016,09,22,15,52,17.10
2016,09,22,15,53,17.10
2016,09,22,15,54,17.10
2016,09,22,15,55,17.10
2016,09,22,15,56,17.10
2016,09,22,15,57,17.10
2016,09,22,15,58,17.10
2016,09,22,15,59,17.10
2016,09,22,16,00,17.10
2016,09,22,16,01,17.10
2016,09,22,16,02,17.10
2016,09,22,16,03,17.20
2016,09,22,16,04,17.20
2016,09,22,16,05,17.20
2016,09,22,16,06,17.30
2016,09,22,16,07,17.40
2016,09,22,16,08,17.40
2016,09,22,16,09,17.60
2016,09,22,16,10,17.70
2016,09,22,16,11,17.80
2016,09,22,16,12,17.90
2016,09,22,16,13,18.00
2016,09,22,16,14,18.10
2016,09,22,16,15,18.30
2016,09,22,16,16,18.40
2016,09,22,16,17,18.50
2016,09,22,16,18,18.70
2016,09,22,16,19,18.80
2016,09,22,16,20,19.00
2016,09,22,16,21,19.20
2016,09,22,16,22,19.30
2016,09,22,16,23,19.40
2016,09,22,16,24,19.50
2016,09,22,16,25,19.50
2016,09,22,16,26,19.50
2016,09,22,16,27,19.60
2016,09,22,16,28,19.50
2016,09,22,16,29,19.60
2016,09,22,16,30,19.50
2016,09,22,16,31,19.50
2016,09,22,16,32,19.50
2016,09,22,16,33,19.50
2016,09,22,16,34,19.50
2016,09,22,16,35,19.50
2016,09,22,16,36,19.50
2016,09,22,16,37,19.50
2016,09,22,16,38,19.50
2016,09,22,16,39,19.60
2016,09,22,16,40,19.60
2016,09,22,16,41,19.60
2016,09,22,16,42,19.60
2016,09,22,16,43,19.60
2016,09,22,16,44,19.60
2016,09,22,16,45,19.70
2016,09,22,16,46,19.70
2016,09,22,16,47,19.70
2016,09,22,16,48,19.70
2016,09,22,16,49,19.70
2016,09,22,16,50,19.60
2016,09,22,16,51,19.50
2016,09,22,16,52,19.40
2016,09,22,16,53,19.30
2016,09,22,16,54,19.30
2016,09,22,16,55,19.20
2016,09,22,16,56,19.20
2016,09,22,16,57,19.20
2016,09,22,16,58,19.20
2016,09,22,16,59,19.10
2016,09,22,17,00,19.00
2016,09,22,17,01,18.80
2016,09,22,17,02,18.60
2016,09,22,17,03,18.50
2016,09,22,17,04,18.40
2016,09,22,17,05,18.30
2016,09,22,17,06,18.20
2016,09,22,17,07,18.10
2016,09,22,17,08,18.10
2016,09,22,17,09,18.10
2016,09,22,17,10,18.10
2016,09,22,17,11,18.10
2016,09,22,17,12,18.10
2016,09,22,17,13,18.10
2016,09,22,17,14,18.10
2016,09,22,17,15,18.20
2016,09,22,17,16,18.20
2016,09,22,17,17,18.30
2016,09,22,17,18,18.30
2016,09,22,17,19,18.30
2016,09,22,17,20,18.30
2016,09,22,17,21,18.30
2016,09,22,17,22,18.30
2016,09,22,17,23,18.30
2016,09,22,17,24,18.20
2016,09,22,17,25,18.20
2016,09,22,17,26,18.10
2016,09,22,17,27,18.00
2016,09,22,17,28,18.00
2016,09,22,17,29,18.00
2016,09,22,17,30,17.90
2016,09,22,17,31,18.00
2016,09,22,17,32,18.00
2016,09,22,17,33,17.90
2016,09,22,17,34,17.90
2016,09,22,17,35,17.90
2016,09,22,17,36,17.90
2016,09,22,17,37,17.80
2016,09,22,17,38,17.80
2016,09,22,17,39,17.80
2016,09,22,17,40,17.80
2016,09,22,17,41,17.80
2016,09,22,17,42,17.80
2016,09,22,17,43,17.80